Location: Alladorf
(49.9620°N, 11.3790°E)
Time: 20:41:07
(UTC+00:00)

Lacrosse 5 - Pass Details

Date: 29 November 2020
Orbit: 713 x 726 km, 57.0° (Epoch: 22 January)

Event Time Altitude Azimuth Distance (km) Brightness Sun altitude
Exits shadow 02:52:51 19° 111° (ESE) 1,678 4.2 -37.1°
Drops below altitude 10° 02:55:33 10° 80° (E) 2,194 5.1 -36.6°
Sets 02:58:30 0° 63° (ENE) 3,119 6.1 -36.2°
